TimeCDT,TemperatureF,Dew PointF,Humidity,Sea Level PressureIn,VisibilityMPH,Wind Direction,Wind SpeedMPH,Gust SpeedMPH,PrecipitationIn,Events,Conditions,WindDirDegrees,DateUTC
12:15 AM,55.4,53.6,94,30.08,5.0,Calm,Calm,-,N/A,,Clear,0,2013-05-09 05:15:00
12:35 AM,55.4,53.6,94,30.07,7.0,Calm,Calm,-,N/A,,Clear,0,2013-05-09 05:35:00
2:35 AM,51.8,50.0,94,30.07,2.5,Calm,Calm,-,N/A,,Scattered Clouds,0,2013-05-09 07:35:00
2:55 AM,51.8,50.0,94,30.08,4.0,Calm,Calm,-,N/A,,Mostly Cloudy,0,2013-05-09 07:55:00
3:15 AM,51.8,50.0,94,30.08,5.0,Calm,Calm,-,N/A,,Scattered Clouds,0,2013-05-09 08:15:00
3:35 AM,51.8,50.0,94,30.08,7.0,Calm,Calm,-,N/A,,Clear,0,2013-05-09 08:35:00
3:55 AM,51.8,50.0,94,30.08,5.0,Calm,Calm,-,N/A,,Clear,0,2013-05-09 08:55:00
4:35 AM,51.8,50.0,94,30.08,7.0,Calm,Calm,-,N/A,,Clear,0,2013-05-09 09:35:00
5:15 AM,50.0,48.2,94,30.08,7.0,Calm,Calm,-,N/A,,Clear,0,2013-05-09 10:15:00
5:35 AM,50.0,48.2,94,30.09,7.0,Calm,Calm,-,N/A,,Clear,0,2013-05-09 10:35:00
5:55 AM,50.0,48.2,94,30.09,5.0,Calm,Calm,-,N/A,,Clear,0,2013-05-09 10:55:00
6:35 AM,51.8,50.0,94,30.11,5.0,Calm,Calm,-,N/A,,Clear,0,2013-05-09 11:35:00
6:55 AM,53.6,51.8,94,30.11,7.0,Calm,Calm,-,N/A,,Clear,0,2013-05-09 11:55:00
7:15 AM,53.6,51.8,94,30.11,5.0,Calm,Calm,-,N/A,,Clear,0,2013-05-09 12:15:00
7:55 AM,59.0,55.4,88,30.13,10.0,Calm,Calm,-,N/A,,Clear,0,2013-05-09 12:55:00
8:15 AM,60.8,57.2,88,30.13,10.0,Calm,Calm,-,N/A,,Clear,0,2013-05-09 13:15:00
8:35 AM,62.6,57.2,82,30.13,10.0,Calm,Calm,-,N/A,,Clear,0,2013-05-09 13:35:00
9:15 AM,68.0,57.2,68,30.13,10.0,Calm,Calm,-,N/A,,Clear,0,2013-05-09 14:15:00
9:35 AM,69.8,57.2,64,30.13,10.0,Calm,Calm,-,N/A,,Clear,0,2013-05-09 14:35:00
9:55 AM,69.8,59.0,68,30.13,10.0,Calm,Calm,-,N/A,,Clear,0,2013-05-09 14:55:00
10:35 AM,71.6,59.0,64,30.13,10.0,Calm,Calm,-,N/A,,Clear,0,2013-05-09 15:35:00
10:55 AM,73.4,59.0,61,30.14,10.0,Calm,Calm,-,N/A,,Clear,0,2013-05-09 15:55:00
11:35 AM,75.2,51.8,44,30.14,10.0,West,9.2,-,N/A,,Scattered Clouds,260,2013-05-09 16:35:00
12:15 PM,77.0,51.8,41,30.13,10.0,WSW,9.2,-,N/A,,Scattered Clouds,250,2013-05-09 17:15:00
12:35 PM,77.0,53.6,44,30.13,10.0,WSW,6.9,-,N/A,,Scattered Clouds,250,2013-05-09 17:35:00
12:55 PM,78.8,51.8,39,30.13,10.0,WNW,5.8,-,N/A,,Clear,300,2013-05-09 17:55:00
1:15 PM,78.8,51.8,39,30.12,10.0,West,9.2,-,N/A,,Scattered Clouds,280,2013-05-09 18:15:00
1:35 PM,78.8,51.8,39,30.12,10.0,SSW,8.1,-,N/A,,Scattered Clouds,210,2013-05-09 18:35:00
1:55 PM,77.0,51.8,41,30.11,10.0,WSW,3.5,-,N/A,,Scattered Clouds,250,2013-05-09 18:55:00
2:35 PM,78.8,50.0,36,30.10,10.0,SW,4.6,-,N/A,,Scattered Clouds,230,2013-05-09 19:35:00
2:55 PM,78.8,51.8,39,30.09,10.0,WSW,11.5,-,N/A,,Scattered Clouds,250,2013-05-09 19:55:00
3:15 PM,78.8,50.0,36,30.08,10.0,West,6.9,-,N/A,,Scattered Clouds,280,2013-05-09 20:15:00
3:35 PM,78.8,51.8,39,30.07,10.0,WSW,6.9,-,N/A,,Scattered Clouds,250,2013-05-09 20:35:00
3:55 PM,78.8,50.0,36,30.07,10.0,West,9.2,-,0.05,,Mostly Cloudy,260,2013-05-09 20:55:00
4:15 PM,78.8,50.0,36,30.07,10.0,West,6.9,-,N/A,,Scattered Clouds,270,2013-05-09 21:15:00
4:35 PM,78.8,51.8,39,30.07,10.0,West,6.9,-,N/A,,Scattered Clouds,260,2013-05-09 21:35:00
4:55 PM,78.8,51.8,39,30.05,10.0,Calm,Calm,-,N/A,,Clear,0,2013-05-09 21:55:00
5:15 PM,78.8,50.0,36,30.05,10.0,Calm,Calm,-,N/A,,Clear,0,2013-05-09 22:15:00
5:35 PM,78.8,48.2,34,30.05,10.0,Calm,Calm,-,N/A,,Clear,0,2013-05-09 22:35:00
5:55 PM,78.8,48.2,34,30.05,10.0,WSW,8.1,-,N/A,,Clear,240,2013-05-09 22:55:00
6:15 PM,78.8,50.0,36,30.04,10.0,SW,3.5,-,N/A,,Clear,230,2013-05-09 23:15:00
6:35 PM,78.8,50.0,36,30.04,10.0,Calm,Calm,-,N/A,,Clear,0,2013-05-09 23:35:00
6:55 PM,77.0,51.8,41,30.04,10.0,Calm,Calm,-,N/A,,Clear,0,2013-05-09 23:55:00
7:15 PM,73.4,53.6,50,30.05,10.0,Calm,Calm,-,N/A,,Clear,0,2013-05-10 00:15:00
7:35 PM,71.6,55.4,57,30.05,10.0,Calm,Calm,-,N/A,,Clear,0,2013-05-10 00:35:00
7:55 PM,68.0,57.2,68,30.06,10.0,Calm,Calm,-,N/A,,Clear,0,2013-05-10 00:55:00
8:15 PM,68.0,59.0,73,30.07,10.0,Calm,Calm,-,N/A,,Clear,0,2013-05-10 01:15:00
8:35 PM,66.2,59.0,78,30.08,10.0,Calm,Calm,-,N/A,,Clear,0,2013-05-10 01:35:00
8:55 PM,64.4,59.0,83,30.08,10.0,Calm,Calm,-,N/A,,Clear,0,2013-05-10 01:55:00
9:15 PM,62.6,59.0,88,30.09,10.0,Calm,Calm,-,N/A,,Clear,0,2013-05-10 02:15:00
9:35 PM,62.6,59.0,88,30.09,10.0,Calm,Calm,-,N/A,,Clear,0,2013-05-10 02:35:00
9:55 PM,62.6,57.2,82,30.09,10.0,Calm,Calm,-,N/A,,Scattered Clouds,0,2013-05-10 02:55:00
10:15 PM,60.8,57.2,88,30.09,10.0,Calm,Calm,-,N/A,,Mostly Cloudy,0,2013-05-10 03:15:00
10:55 PM,62.6,57.2,82,30.08,10.0,Calm,Calm,-,N/A,,Overcast,0,2013-05-10 03:55:00
11:15 PM,62.6,57.2,82,30.09,10.0,Calm,Calm,-,N/A,,Overcast,0,2013-05-10 04:15:00
11:35 PM,60.8,57.2,88,30.09,10.0,Calm,Calm,-,N/A,,Scattered Clouds,0,2013-05-10 04:35:00
11:55 PM,60.8,57.2,88,30.09,10.0,Calm,Calm,-,N/A,,Mostly Cloudy,0,2013-05-10 04:55:00